owner,sensor,date,latitude,longitude,vertical_datum,direction_of_sea_water_velocity,sea_water_speed,upward_sea_water_velocity,qcFlag 
TABS,ioos:station:TABS:H:1,2007-08-01T00:00:00Z,27.8674,-96.5433,2.0,280.7740339,17.60023295,-99999.0,'11111222,11111222,99999999' 
TABS,ioos:station:TABS:H:1,2007-08-01T00:30:00Z,27.8674,-96.5433,2.0,309.2487536,16.72240712,-99999.0,'11111222,11111222,99999999' 
TABS,ioos:station:TABS:H:1,2007-08-01T01:00:00Z,27.8674,-96.5433,2.0,303.985957,19.35652087,-99999.0,'11111222,11111222,99999999' 
TABS,ioos:station:TABS:H:1,2007-08-01T01:30:00Z,27.8674,-96.5433,2.0,324.3818039,17.30812815,-99999.0,'11111222,11111222,99999999' 
TABS,ioos:station:TABS:H:1,2007-08-01T02:00:00Z,27.8674,-96.5433,2.0,348.2949127,18.18824346,-99999.0,'11111222,11111222,99999999' 
TABS,ioos:station:TABS:H:1,2007-08-01T02:30:00Z,27.8674,-96.5433,2.0,345.4648554,21.99396508,-99999.0,'11111222,11111222,99999999' 
TABS,ioos:station:TABS:H:1,2007-08-01T03:00:00Z,27.8674,-96.5433,2.0,354.9482344,21.12205482,-99999.0,'11111222,11111222,99999999' 
TABS,ioos:station:TABS:H:1,2007-08-01T03:30:00Z,27.8674,-96.5433,2.0,4.452141426,22.28724523,-99999.0,'11111222,11111222,99999999' 
TABS,ioos:station:TABS:H:1,2007-08-01T04:00:00Z,27.8674,-96.5433,2.0,19.88265138,21.40596412,-99999.0,'11111222,11111222,99999999' 
TABS,ioos:station:TABS:H:1,2007-08-01T04:30:00Z,27.8674,-96.5433,2.0,33.94420513,18.76846557,-99999.0,'11111222,11111222,99999999' 
TABS,ioos:station:TABS:H:1,2007-08-01T05:00:00Z,27.8674,-96.5433,2.0,47.66426709,16.1253217,-99999.0,'11111222,11111222,99999999' 
TABS,ioos:station:TABS:H:1,2007-08-01T05:30:00Z,27.8674,-96.5433,2.0,45.20728022,17.60000284,-99999.0,'11111222,11111222,99999999' 
TABS,ioos:station:TABS:H:1,2007-08-01T06:00:00Z,27.8674,-96.5433,2.0,47.66343409,28.15204611,-99999.0,'11111222,11111222,99999999' 
TABS,ioos:station:TABS:H:1,2007-08-01T06:30:00Z,27.8674,-96.5433,2.0,43.79942483,24.63393797,-99999.0,'11111222,11111222,99999999' 
TABS,ioos:station:TABS:H:1,2007-08-01T07:00:00Z,27.8674,-96.5433,2.0,51.1808102,25.8109376,-99999.0,'11111222,11111222,99999999' 
TABS,ioos:station:TABS:H:1,2007-08-01T07:30:00Z,27.8674,-96.5433,2.0,46.97379818,22.58424672,-99999.0,'11111222,11111222,99999999' 
TABS,ioos:station:TABS:H:1,2007-08-01T08:00:00Z,27.8674,-96.5433,2.0,60.31881471,29.04027032,-99999.0,'11111222,11111222,99999999' 
TABS,ioos:station:TABS:H:1,2007-08-01T08:30:00Z,27.8674,-96.5433,2.0,59.26375153,31.97101813,-99999.0,'11111222,11111222,99999999' 
TABS,ioos:station:TABS:H:1,2007-08-01T09:00:00Z,27.8674,-96.5433,2.0,63.48139165,33.14748256,-99999.0,'11111222,11111222,99999999' 
TABS,ioos:station:TABS:H:1,2007-08-01T09:30:00Z,27.8674,-96.5433,2.0,57.15271056,26.40103786,-99999.0,'11111222,11111222,99999999' 
TABS,ioos:station:TABS:H:1,2007-08-01T10:00:00Z,27.8674,-96.5433,2.0,62.0804342,31.97129025,-99999.0,'11111222,11111222,99999999' 
TABS,ioos:station:TABS:H:1,2007-08-01T10:30:00Z,27.8674,-96.5433,2.0,70.16328236,38.13266972,-99999.0,'11111222,11111222,99999999' 
TABS,ioos:station:TABS:H:1,2007-08-01T11:00:00Z,27.8674,-96.5433,2.0,87.74450197,43.7038591,-99999.0,'11111222,11111222,99999999' 
TABS,ioos:station:TABS:H:1,2007-08-01T11:30:00Z,27.8674,-96.5433,2.0,94.43294572,30.79211587,-99999.0,'11111222,11111222,99999999' 
TABS,ioos:station:TABS:H:1,2007-08-01T12:00:00Z,27.8674,-96.5433,2.0,97.58758424,48.39372893,-99999.0,'11111222,11111222,99999999' 
TABS,ioos:station:TABS:H:1,2007-08-01T12:30:00Z,27.8674,-96.5433,2.0,101.4557213,45.46575085,-99999.0,'11111222,11111222,99999999' 
TABS,ioos:station:TABS:H:1,2007-08-01T13:00:00Z,27.8674,-96.5433,2.0,101.8032714,38.71868283,-99999.0,'11111222,11111222,99999999' 
TABS,ioos:station:TABS:H:1,2007-08-01T13:30:00Z,27.8674,-96.5433,2.0,104.6220944,38.4245026,-99999.0,'11111222,11111222,99999999' 
TABS,ioos:station:TABS:H:1,2007-08-01T14:00:00Z,27.8674,-96.5433,2.0,110.2423518,35.49208926,-99999.0,'11111222,11111222,99999999' 
TABS,ioos:station:TABS:H:1,2007-08-01T14:30:00Z,27.8674,-96.5433,2.0,112.0059628,34.32043123,-99999.0,'11111222,11111222,99999999' 
TABS,ioos:station:TABS:H:1,2007-08-01T15:00:00Z,27.8674,-96.5433,2.0,115.1620765,30.50463899,-99999.0,'11111222,11111222,99999999' 
TABS,ioos:station:TABS:H:1,2007-08-01T15:30:00Z,27.8674,-96.5433,2.0,116.9205426,25.22333245,-99999.0,'11111222,11111222,99999999' 
TABS,ioos:station:TABS:H:1,2007-08-01T16:00:00Z,27.8674,-96.5433,2.0,114.8296666,20.52757414,-99999.0,'11111222,11111222,99999999' 
TABS,ioos:station:TABS:H:1,2007-08-01T16:30:00Z,27.8674,-96.5433,2.0,119.7501957,13.19977651,-99999.0,'11111222,11111222,99999999' 
TABS,ioos:station:TABS:H:1,2007-08-01T17:00:00Z,27.8674,-96.5433,2.0,136.2357766,11.14659589,-99999.0,'11111222,11111222,99999999' 
TABS,ioos:station:TABS:H:1,2007-08-01T17:30:00Z,27.8674,-96.5433,2.0,149.6309065,11.72942028,-99999.0,'11111222,11111222,99999999' 
TABS,ioos:station:TABS:H:1,2007-08-01T18:00:00Z,27.8674,-96.5433,2.0,132.3973387,9.966343362,-99999.0,'11133222,11111222,99999999' 
TABS,ioos:station:TABS:H:1,2007-08-01T18:30:00Z,27.8674,-96.5433,2.0,156.2882167,9.971810267,-99999.0,'11133222,11111222,99999999' 
TABS,ioos:station:TABS:H:1,2007-08-01T19:00:00Z,27.8674,-96.5433,2.0,148.5672115,8.801602127,-99999.0,'11133222,11111222,99999999' 
TABS,ioos:station:TABS:H:1,2007-08-01T19:30:00Z,27.8674,-96.5433,2.0,167.8949503,7.916009095,-99999.0,'11133222,11111222,99999999' 
TABS,ioos:station:TABS:H:1,2007-08-01T20:00:00Z,27.8674,-96.5433,2.0,172.8209659,10.56280266,-99999.0,'11111222,11111222,99999999' 
TABS,ioos:station:TABS:H:1,2007-08-01T20:30:00Z,27.8674,-96.5433,2.0,189.3818015,9.3855474,-99999.0,'11133222,11111222,99999999' 
TABS,ioos:station:TABS:H:1,2007-08-01T21:00:00Z,27.8674,-96.5433,2.0,209.0407732,12.31881894,-99999.0,'11111222,11111222,99999999' 
TABS,ioos:station:TABS:H:1,2007-08-01T21:30:00Z,27.8674,-96.5433,2.0,227.3398585,14.37332599,-99999.0,'11111222,11111222,99999999' 
TABS,ioos:station:TABS:H:1,2007-08-01T22:00:00Z,27.8674,-96.5433,2.0,228.0052053,11.73289819,-99999.0,'11111222,11111222,99999999' 
TABS,ioos:station:TABS:H:1,2007-08-01T22:30:00Z,27.8674,-96.5433,2.0,258.2877033,12.02025374,-99999.0,'11111222,11111222,99999999' 
TABS,ioos:station:TABS:H:1,2007-08-01T23:00:00Z,27.8674,-96.5433,2.0,260.7062922,11.14629983,-99999.0,'11111222,11111222,99999999' 
TABS,ioos:station:TABS:H:1,2007-08-01T23:30:00Z,27.8674,-96.5433,2.0,292.035056,8.209658945,-99999.0,'11133222,11111222,99999999' 
TABS,ioos:station:TABS:H:1,2007-08-02T00:00:00Z,27.8674,-96.5433,2.0,306.4405475,11.73432998,-99999.0,'11111222,11111222,99999999' 
TABS,ioos:station:TABS:H:1,2007-08-02T00:30:00Z,27.8674,-96.5433,2.0,308.8889134,14.08073862,-99999.0,'11111222,11111222,99999999' 
TABS,ioos:station:TABS:H:1,2007-08-02T01:00:00Z,27.8674,-96.5433,2.0,308.8926135,18.47550811,-99999.0,'11111222,11111222,99999999' 
TABS,ioos:station:TABS:H:1,2007-08-02T01:30:00Z,27.8674,-96.5433,2.0,305.7363582,20.82007685,-99999.0,'11111222,11111222,99999999' 
TABS,ioos:station:TABS:H:1,2007-08-02T02:00:00Z,27.8674,-96.5433,2.0,309.6110165,22.58583627,-99999.0,'11111222,11111222,99999999' 
TABS,ioos:station:TABS:H:1,2007-08-02T02:30:00Z,27.8674,-96.5433,2.0,332.4655341,29.33246836,-99999.0,'11111222,11111222,99999999' 
TABS,ioos:station:TABS:H:1,2007-08-02T03:00:00Z,27.8674,-96.5433,2.0,334.9125686,32.26376915,-99999.0,'11111222,11111222,99999999' 
TABS,ioos:station:TABS:H:1,2007-08-02T03:30:00Z,27.8674,-96.5433,2.0,340.1896429,34.90579465,-99999.0,'11111222,11111222,99999999' 
TABS,ioos:station:TABS:H:1,2007-08-02T04:00:00Z,27.8674,-96.5433,2.0,350.3878914,40.18418221,-99999.0,'11111222,11111222,99999999' 
TABS,ioos:station:TABS:H:1,2007-08-02T04:30:00Z,27.8674,-96.5433,2.0,354.6098554,40.77029556,-99999.0,'11111222,11111222,99999999' 
TABS,ioos:station:TABS:H:1,2007-08-02T05:00:00Z,27.8674,-96.5433,2.0,5.15752185,41.93978779,-99999.0,'11111222,11111222,99999999' 
TABS,ioos:station:TABS:H:1,2007-08-02T05:30:00Z,27.8674,-96.5433,2.0,8.636388659,38.42568152,-99999.0,'11111222,11111222,99999999' 
TABS,ioos:station:TABS:H:1,2007-08-02T06:00:00Z,27.8674,-96.5433,2.0,16.72427502,41.9441748,-99999.0,'11111222,11111222,99999999' 
TABS,ioos:station:TABS:H:1,2007-08-02T06:30:00Z,27.8674,-96.5433,2.0,20.58702044,41.35064328,-99999.0,'11111222,11111222,99999999' 
TABS,ioos:station:TABS:H:1,2007-08-02T07:00:00Z,27.8674,-96.5433,2.0,24.10455466,38.12433475,-99999.0,'11111222,11111222,99999999' 
TABS,ioos:station:TABS:H:1,2007-08-02T07:30:00Z,27.8674,-96.5433,2.0,31.13888819,46.0441549,-99999.0,'11111222,11111222,99999999' 
TABS,ioos:station:TABS:H:1,2007-08-02T08:00:00Z,27.8674,-96.5433,2.0,36.06207539,47.51472403,-99999.0,'11111222,11111222,99999999' 
TABS,ioos:station:TABS:H:1,2007-08-02T08:30:00Z,27.8674,-96.5433,2.0,41.33561364,50.44915064,-99999.0,'11111222,11111222,99999999' 
TABS,ioos:station:TABS:H:1,2007-08-02T09:00:00Z,27.8674,-96.5433,2.0,44.84735262,61.00231881,-99999.0,'11111222,11111222,99999999' 
TABS,ioos:station:TABS:H:1,2007-08-02T09:30:00Z,27.8674,-96.5433,2.0,51.17645162,63.35683073,-99999.0,'11111222,11111222,99999999' 
TABS,ioos:station:TABS:H:1,2007-08-02T10:00:00Z,27.8674,-96.5433,2.0,57.5070889,64.52016739,-99999.0,'11111222,11111222,99999999' 
TABS,ioos:station:TABS:H:1,2007-08-02T10:30:00Z,27.8674,-96.5433,2.0,65.94093717,68.63242164,-99999.0,'11111222,11111222,99999999' 
TABS,ioos:station:TABS:H:1,2007-08-02T11:00:00Z,27.8674,-96.5433,2.0,70.86910334,69.50882894,-99999.0,'11111222,11111222,99999999' 
TABS,ioos:station:TABS:H:1,2007-08-02T11:30:00Z,27.8674,-96.5433,2.0,75.43847725,67.45684324,-99999.0,'11111222,11111222,99999999' 
TABS,ioos:station:TABS:H:1,2007-08-02T12:00:00Z,27.8674,-96.5433,2.0,78.24896868,54.25713686,-99999.0,'11111222,11111222,99999999' 
TABS,ioos:station:TABS:H:1,2007-08-02T12:30:00Z,27.8674,-96.5433,2.0,85.28076277,58.94985157,-99999.0,'11111222,11111222,99999999' 
TABS,ioos:station:TABS:H:1,2007-08-02T13:00:00Z,27.8674,-96.5433,2.0,97.23609914,67.16493505,-99999.0,'11111222,11111222,99999999' 
TABS,ioos:station:TABS:H:1,2007-08-02T13:30:00Z,27.8674,-96.5433,2.0,99.70316397,62.17953441,-99999.0,'11111222,11111222,99999999' 
TABS,ioos:station:TABS:H:1,2007-08-02T14:00:00Z,27.8674,-96.5433,2.0,102.1625972,57.19379861,-99999.0,'11111222,11111222,99999999' 
TABS,ioos:station:TABS:H:1,2007-08-02T14:30:00Z,27.8674,-96.5433,2.0,103.9217473,52.20347211,-99999.0,'11111222,11111222,99999999' 
TABS,ioos:station:TABS:H:1,2007-08-02T15:00:00Z,27.8674,-96.5433,2.0,107.0846396,53.67875744,-99999.0,'11111222,11111222,99999999' 
TABS,ioos:station:TABS:H:1,2007-08-02T15:30:00Z,27.8674,-96.5433,2.0,109.1879761,52.21055162,-99999.0,'11111222,11111222,99999999' 
TABS,ioos:station:TABS:H:1,2007-08-02T16:00:00Z,27.8674,-96.5433,2.0,107.7785827,46.93127955,-99999.0,'11111222,11111222,99999999' 
TABS,ioos:station:TABS:H:1,2007-08-02T16:30:00Z,27.8674,-96.5433,2.0,109.5476204,44.29288882,-99999.0,'11111222,11111222,99999999' 
TABS,ioos:station:TABS:H:1,2007-08-02T17:00:00Z,27.8674,-96.5433,2.0,109.5460086,40.76942482,-99999.0,'11111222,11111222,99999999' 
TABS,ioos:station:TABS:H:1,2007-08-02T17:30:00Z,27.8674,-96.5433,2.0,114.4731788,37.24640788,-99999.0,'11111222,11111222,99999999' 
TABS,ioos:station:TABS:H:1,2007-08-02T18:00:00Z,27.8674,-96.5433,2.0,123.2516107,32.26230773,-99999.0,'11111222,11111222,99999999' 
TABS,ioos:station:TABS:H:1,2007-08-02T18:30:00Z,27.8674,-96.5433,2.0,126.4131883,24.34277305,-99999.0,'11111222,11111222,99999999' 
TABS,ioos:station:TABS:H:1,2007-08-02T19:00:00Z,27.8674,-96.5433,2.0,144.0079452,22.58065101,-99999.0,'11111222,11111222,99999999' 
TABS,ioos:station:TABS:H:1,2007-08-02T19:30:00Z,27.8674,-96.5433,2.0,152.4278988,17.30536622,-99999.0,'11111222,11111222,99999999' 
TABS,ioos:station:TABS:H:1,2007-08-02T20:00:00Z,27.8674,-96.5433,2.0,162.6324906,20.53623383,-99999.0,'11111222,11111222,99999999' 
TABS,ioos:station:TABS:H:1,2007-08-02T20:30:00Z,27.8674,-96.5433,2.0,171.4207441,18.77001865,-99999.0,'11111222,11111222,99999999' 
TABS,ioos:station:TABS:H:1,2007-08-02T21:00:00Z,27.8674,-96.5433,2.0,151.0321966,14.08171865,-99999.0,'11111222,11111222,99999999' 
TABS,ioos:station:TABS:H:1,2007-08-02T21:30:00Z,27.8674,-96.5433,2.0,182.3149666,15.84293218,-99999.0,'11111222,11111222,99999999' 
TABS,ioos:station:TABS:H:1,2007-08-02T22:00:00Z,27.8674,-96.5433,2.0,191.4458703,13.20257551,-99999.0,'11111222,11111222,99999999' 
TABS,ioos:station:TABS:H:1,2007-08-02T22:30:00Z,27.8674,-96.5433,2.0,216.785917,12.32401315,-99999.0,'11111222,11111222,99999999' 
TABS,ioos:station:TABS:H:1,2007-08-02T23:00:00Z,27.8674,-96.5433,2.0,231.8906208,12.02281165,-99999.0,'11111222,11111222,99999999' 
TABS,ioos:station:TABS:H:1,2007-08-02T23:30:00Z,27.8674,-96.5433,2.0,243.8713972,10.55901984,-99999.0,'11111222,11111222,99999999' 
TABS,ioos:station:TABS:H:1,2007-08-03T00:00:00Z,27.8674,-96.5433,2.0,252.645595,15.2543797,-99999.0,'11111222,11111222,99999999' 
TABS,ioos:station:TABS:H:1,2007-08-03T00:30:00Z,27.8674,-96.5433,2.0,278.656014,24.05395602,-99999.0,'11111222,11111222,99999999' 
TABS,ioos:station:TABS:H:1,2007-08-03T01:00:00Z,27.8674,-96.5433,2.0,293.4263428,25.80716955,-99999.0,'11111222,11111222,99999999' 
TABS,ioos:station:TABS:H:1,2007-08-03T01:30:00Z,27.8674,-96.5433,2.0,315.2305099,35.20005966,-99999.0,'11111222,11111222,99999999' 
TABS,ioos:station:TABS:H:1,2007-08-03T02:00:00Z,27.8674,-96.5433,2.0,323.317399,34.31618277,-99999.0,'11111222,11111222,99999999' 
TABS,ioos:station:TABS:H:1,2007-08-03T02:30:00Z,27.8674,-96.5433,2.0,329.2987338,33.72726494,-99999.0,'11111222,11111222,99999999' 
TABS,ioos:station:TABS:H:1,2007-08-03T03:00:00Z,27.8674,-96.5433,2.0,343.7129474,36.36960407,-99999.0,'11111222,11111222,99999999' 
TABS,ioos:station:TABS:H:1,2007-08-03T03:30:00Z,27.8674,-96.5433,2.0,350.3854365,40.77273721,-99999.0,'11111222,11111222,99999999' 
TABS,ioos:station:TABS:H:1,2007-08-03T04:00:00Z,27.8674,-96.5433,2.0,358.4820134,43.40523701,-99999.0,'11111222,11111222,99999999' 
TABS,ioos:station:TABS:H:1,2007-08-03T04:30:00Z,27.8674,-96.5433,2.0,3.043310446,43.70162468,-99999.0,'11111222,11111222,99999999' 
TABS,ioos:station:TABS:H:1,2007-08-03T05:00:00Z,27.8674,-96.5433,2.0,7.925270229,46.63540501,-99999.0,'11111222,11111222,99999999' 
TABS,ioos:station:TABS:H:1,2007-08-03T05:30:00Z,27.8674,-96.5433,2.0,16.01224105,48.39765387,-99999.0,'11111222,11111222,99999999' 
TABS,ioos:station:TABS:H:1,2007-08-03T06:00:00Z,27.8674,-96.5433,2.0,23.05383418,51.91610347,-99999.0,'11111222,11111222,99999999' 
TABS,ioos:station:TABS:H:1,2007-08-03T06:30:00Z,27.8674,-96.5433,2.0,25.16213254,49.86137684,-99999.0,'11111222,11111222,99999999' 
TABS,ioos:station:TABS:H:1,2007-08-03T07:00:00Z,27.8674,-96.5433,2.0,31.84458972,51.3252998,-99999.0,'11111222,11111222,99999999' 
TABS,ioos:station:TABS:H:1,2007-08-03T07:30:00Z,27.8674,-96.5433,2.0,33.24304505,48.68751893,-99999.0,'11111222,11111222,99999999' 
TABS,ioos:station:TABS:H:1,2007-08-03T08:00:00Z,27.8674,-96.5433,2.0,34.29453193,45.75421729,-99999.0,'11111222,11111222,99999999' 
TABS,ioos:station:TABS:H:1,2007-08-03T08:30:00Z,27.8674,-96.5433,2.0,40.98183893,50.15108872,-99999.0,'11111222,11111222,99999999' 
TABS,ioos:station:TABS:H:1,2007-08-03T09:00:00Z,27.8674,-96.5433,2.0,45.55258716,54.26589721,-99999.0,'11111222,11111222,99999999' 
TABS,ioos:station:TABS:H:1,2007-08-03T09:30:00Z,27.8674,-96.5433,2.0,48.01960009,50.74171854,-99999.0,'11111222,11111222,99999999' 
TABS,ioos:station:TABS:H:1,2007-08-03T10:00:00Z,27.8674,-96.5433,2.0,52.2296377,51.91841292,-99999.0,'11111222,11111222,99999999' 
TABS,ioos:station:TABS:H:1,2007-08-03T10:30:00Z,27.8674,-96.5433,2.0,58.91297293,53.37562833,-99999.0,'11111222,11111222,99999999' 
TABS,ioos:station:TABS:H:1,2007-08-03T11:00:00Z,27.8674,-96.5433,2.0,64.18980975,49.5645115,-99999.0,'11111222,11111222,99999999' 
TABS,ioos:station:TABS:H:1,2007-08-03T11:30:00Z,27.8674,-96.5433,2.0,71.57646322,47.81047689,-99999.0,'11111222,11111222,99999999' 
TABS,ioos:station:TABS:H:1,2007-08-03T12:00:00Z,27.8674,-96.5433,2.0,81.06685216,40.76446737,-99999.0,'11111222,11111222,99999999' 
TABS,ioos:station:TABS:H:1,2007-08-03T12:30:00Z,27.8674,-96.5433,2.0,85.64043543,46.04321991,-99999.0,'11111222,11111222,99999999' 
TABS,ioos:station:TABS:H:1,2007-08-03T13:00:00Z,27.8674,-96.5433,2.0,88.44221706,43.40604221,-99999.0,'11111222,11111222,99999999' 
TABS,ioos:station:TABS:H:1,2007-08-03T13:30:00Z,27.8674,-96.5433,2.0,94.06868034,43.40940451,-99999.0,'11111222,11111222,99999999' 
TABS,ioos:station:TABS:H:1,2007-08-03T14:00:00Z,27.8674,-96.5433,2.0,95.12256649,46.92743014,-99999.0,'11111222,11111222,99999999' 
TABS,ioos:station:TABS:H:1,2007-08-03T14:30:00Z,27.8674,-96.5433,2.0,100.4030463,49.56475562,-99999.0,'11111222,11111222,99999999' 
TABS,ioos:station:TABS:H:1,2007-08-03T15:00:00Z,27.8674,-96.5433,2.0,104.2716548,47.21723414,-99999.0,'11111222,11111222,99999999' 
TABS,ioos:station:TABS:H:1,2007-08-03T15:30:00Z,27.8674,-96.5433,2.0,114.1096628,47.81077807,-99999.0,'11111222,11111222,99999999' 
TABS,ioos:station:TABS:H:1,2007-08-03T16:00:00Z,27.8674,-96.5433,2.0,118.6832894,40.77349384,-99999.0,'11111222,11111222,99999999' 
TABS,ioos:station:TABS:H:1,2007-08-03T16:30:00Z,27.8674,-96.5433,2.0,127.8190563,39.59743426,-99999.0,'11111222,11111222,99999999' 
TABS,ioos:station:TABS:H:1,2007-08-03T17:00:00Z,27.8674,-96.5433,2.0,135.2116145,40.18515273,-99999.0,'11111222,11111222,99999999' 
TABS,ioos:station:TABS:H:1,2007-08-03T17:30:00Z,27.8674,-96.5433,2.0,142.234852,39.30279634,-99999.0,'11111222,11111222,99999999' 
TABS,ioos:station:TABS:H:1,2007-08-03T18:00:00Z,27.8674,-96.5433,2.0,153.8520577,39.30217297,-99999.0,'11111222,11111222,99999999' 
TABS,ioos:station:TABS:H:1,2007-08-03T18:30:00Z,27.8674,-96.5433,2.0,169.3238766,33.14369472,-99999.0,'11111222,11111222,99999999' 
TABS,ioos:station:TABS:H:1,2007-08-03T19:00:00Z,27.8674,-96.5433,2.0,179.5114862,31.68115055,-99999.0,'11111222,11111222,99999999' 
TABS,ioos:station:TABS:H:1,2007-08-03T19:30:00Z,27.8674,-96.5433,2.0,183.7249317,27.85886035,-99999.0,'11111222,11111222,99999999' 
TABS,ioos:station:TABS:H:1,2007-08-03T20:00:00Z,27.8674,-96.5433,2.0,195.6911544,21.99988409,-99999.0,'11111222,11111222,99999999' 
TABS,ioos:station:TABS:H:1,2007-08-03T20:30:00Z,27.8674,-96.5433,2.0,195.3260276,19.0681331,-99999.0,'11111222,11111222,99999999' 
TABS,ioos:station:TABS:H:1,2007-08-03T21:00:00Z,27.8674,-96.5433,2.0,212.2121443,16.13327307,-99999.0,'11111222,11111222,99999999' 
TABS,ioos:station:TABS:H:1,2007-08-03T21:30:00Z,27.8674,-96.5433,2.0,216.4183044,17.01252774,-99999.0,'11111222,11111222,99999999' 
TABS,ioos:station:TABS:H:1,2007-08-03T22:00:00Z,27.8674,-96.5433,2.0,240.7017886,9.379792109,-99999.0,'11133222,11111222,99999999' 
TABS,ioos:station:TABS:H:1,2007-08-03T22:30:00Z,27.8674,-96.5433,2.0,255.4765209,10.84658472,-99999.0,'11111222,11111222,99999999' 
TABS,ioos:station:TABS:H:1,2007-08-03T23:00:00Z,27.8674,-96.5433,2.0,289.5573517,11.14284075,-99999.0,'11111222,11111222,99999999' 
TABS,ioos:station:TABS:H:1,2007-08-03T23:30:00Z,27.8674,-96.5433,2.0,293.7975466,12.31721559,-99999.0,'11111222,11111222,99999999' 
TABS,ioos:station:TABS:H:1,2007-08-04T00:00:00Z,27.8674,-96.5433,2.0,299.7495595,16.4246796,-99999.0,'11111222,11111222,99999999' 
TABS,ioos:station:TABS:H:1,2007-08-04T00:30:00Z,27.8674,-96.5433,2.0,307.1492674,18.48021915,-99999.0,'11111222,11111222,99999999' 
TABS,ioos:station:TABS:H:1,2007-08-04T01:00:00Z,27.8674,-96.5433,2.0,307.4942543,19.64916538,-99999.0,'11111222,11111222,99999999' 
TABS,ioos:station:TABS:H:1,2007-08-04T01:30:00Z,27.8674,-96.5433,2.0,328.607755,14.66696969,-99999.0,'11111222,11111222,99999999' 
TABS,ioos:station:TABS:H:1,2007-08-04T02:00:00Z,27.8674,-96.5433,2.0,313.8264832,17.60358202,-99999.0,'11111222,11111222,99999999' 
TABS,ioos:station:TABS:H:1,2007-08-04T02:30:00Z,27.8674,-96.5433,2.0,318.7361677,13.78251428,-99999.0,'11111222,11111222,99999999' 
TABS,ioos:station:TABS:H:1,2007-08-04T03:00:00Z,27.8674,-96.5433,2.0,315.9212324,16.71816377,-99999.0,'11111222,11111222,99999999' 
TABS,ioos:station:TABS:H:1,2007-08-04T03:30:00Z,27.8674,-96.5433,2.0,329.981297,17.88973449,-99999.0,'11111222,11111222,99999999' 
TABS,ioos:station:TABS:H:1,2007-08-04T04:00:00Z,27.8674,-96.5433,2.0,348.6392236,26.39724228,-99999.0,'11111222,11111222,99999999' 
TABS,ioos:station:TABS:H:1,2007-08-04T04:30:00Z,27.8674,-96.5433,2.0,358.4808407,29.04021005,-99999.0,'11111222,11111222,99999999' 
TABS,ioos:station:TABS:H:1,2007-08-04T05:00:00Z,27.8674,-96.5433,2.0,3.042045502,31.09380967,-99999.0,'11111222,11111222,99999999' 
TABS,ioos:station:TABS:H:1,2007-08-04T05:30:00Z,27.8674,-96.5433,2.0,14.61591433,32.85313075,-99999.0,'11111222,11111222,99999999' 
TABS,ioos:station:TABS:H:1,2007-08-04T06:00:00Z,27.8674,-96.5433,2.0,22.35190043,34.02652642,-99999.0,'11111222,11111222,99999999' 
TABS,ioos:station:TABS:H:1,2007-08-04T06:30:00Z,27.8674,-96.5433,2.0,25.85896033,35.19391141,-99999.0,'11111222,11111222,99999999' 
TABS,ioos:station:TABS:H:1,2007-08-04T07:00:00Z,27.8674,-96.5433,2.0,34.30388641,33.14523797,-99999.0,'11111222,11111222,99999999' 
TABS,ioos:station:TABS:H:1,2007-08-04T07:30:00Z,27.8674,-96.5433,2.0,39.92843654,31.67511642,-99999.0,'11111222,11111222,99999999' 
TABS,ioos:station:TABS:H:1,2007-08-04T08:00:00Z,27.8674,-96.5433,2.0,33.23786072,30.21268773,-99999.0,'11111222,11111222,99999999' 
TABS,ioos:station:TABS:H:1,2007-08-04T08:30:00Z,27.8674,-96.5433,2.0,35.01279901,27.27632857,-99999.0,'11111222,11111222,99999999' 
TABS,ioos:station:TABS:H:1,2007-08-04T09:00:00Z,27.8674,-96.5433,2.0,36.41424342,33.439058,-99999.0,'11111222,11111222,99999999' 
TABS,ioos:station:TABS:H:1,2007-08-04T09:30:00Z,27.8674,-96.5433,2.0,49.07419532,27.56904968,-99999.0,'11111222,11111222,99999999' 
TABS,ioos:station:TABS:H:1,2007-08-04T10:00:00Z,27.8674,-96.5433,2.0,54.69800163,23.46478425,-99999.0,'11111222,11111222,99999999' 
TABS,ioos:station:TABS:H:1,2007-08-04T10:30:00Z,27.8674,-96.5433,2.0,55.38773422,27.56939789,-99999.0,'11111222,11111222,99999999' 
TABS,ioos:station:TABS:H:1,2007-08-04T11:00:00Z,27.8674,-96.5433,2.0,67.01133696,25.80976559,-99999.0,'11111222,11111222,99999999' 
TABS,ioos:station:TABS:H:1,2007-08-04T11:30:00Z,27.8674,-96.5433,2.0,72.28424872,19.65194138,-99999.0,'11111222,11111222,99999999' 
TABS,ioos:station:TABS:H:1,2007-08-04T12:00:00Z,27.8674,-96.5433,2.0,95.46347764,14.0739369,-99999.0,'11111222,11111222,99999999' 
TABS,ioos:station:TABS:H:1,2007-08-04T12:30:00Z,27.8674,-96.5433,2.0,100.4018787,23.76049242,-99999.0,'11111222,11111222,99999999' 
TABS,ioos:station:TABS:H:1,2007-08-04T13:00:00Z,27.8674,-96.5433,2.0,113.4107851,25.5208934,-99999.0,'11111222,11111222,99999999' 
TABS,ioos:station:TABS:H:1,2007-08-04T13:30:00Z,27.8674,-96.5433,2.0,117.6193911,25.51785649,-99999.0,'11111222,11111222,99999999' 
TABS,ioos:station:TABS:H:1,2007-08-04T14:00:00Z,27.8674,-96.5433,2.0,119.391841,23.75806389,-99999.0,'11111222,11111222,99999999' 
TABS,ioos:station:TABS:H:1,2007-08-04T14:30:00Z,27.8674,-96.5433,2.0,127.8237204,22.58513006,-99999.0,'11111222,11111222,99999999' 
TABS,ioos:station:TABS:H:1,2007-08-04T15:00:00Z,27.8674,-96.5433,2.0,129.2312372,20.82368363,-99999.0,'11111222,11111222,99999999' 
TABS,ioos:station:TABS:H:1,2007-08-04T15:30:00Z,27.8674,-96.5433,2.0,142.2554454,18.4761522,-99999.0,'11111222,11111222,99999999' 
TABS,ioos:station:TABS:H:1,2007-08-04T16:00:00Z,27.8674,-96.5433,2.0,136.9701424,17.89330881,-99999.0,'11111222,11111222,99999999' 
TABS,ioos:station:TABS:H:1,2007-08-04T16:30:00Z,27.8674,-96.5433,2.0,138.0126752,17.89331998,-99999.0,'11111222,11111222,99999999' 
TABS,ioos:station:TABS:H:1,2007-08-04T17:00:00Z,27.8674,-96.5433,2.0,158.0345624,9.089823981,-99999.0,'11133222,11111222,99999999' 
TABS,ioos:station:TABS:H:1,2007-08-04T17:30:00Z,27.8674,-96.5433,2.0,146.1153907,11.44353092,-99999.0,'11111222,11111222,99999999' 
TABS,ioos:station:TABS:H:1,2007-08-04T18:00:00Z,27.8674,-96.5433,2.0,152.7247859,4.691630847,-99999.0,'11133222,11111222,99999999' 